ROMMA est une association bénévole à but non lucratif. Votre soutien est indispensable : ADHERER à ROMMA ou FAIRE un DON

Chambon - (38, Isère)

Oisans (2460 m)   Longitude: 06° 10' 42" E   Latitude: 45° 01' 32" N Station partenaire n°803
 

Détail journalier du     <<     >>

Température Humidité Vent Dir Rafale Dir. rafale Neige 1 Neige 2
Heure (°C) (%) (km/h) (km/h) (cm) (cm)
01:00 11.1707SSE35S41
02:00 11.4677SSE28SSE31
03:00 10.9714S24S31
04:00 10.6733NNE18OSO22
05:00 11.9647NNE31S31
06:00 11.4677S33SSO31
07:00 10.67311S49S31
08:00 9.2876S40S32
09:00 11.57413S47S31
10:00 7.29814S44S20
11:00 10.28915S59S22
12:00 10.58613S53S01
13:00 7.69920SSO60OSO12
14:00 9.28431SSO70SSO32
15:00 10.27536SSO66SSO21
16:00 10.97422SSO59SSO32
17:00 10.88125SSO51OSO22
18:00 10.77931OSO49OSO11
19:00 10.98126OSO40OSO12
20:00 10.18122SO40SO21
21:00 9.68018SO34SO12
22:00 8.19714SO22SO02
23:00 8.1947SO14OSO02
minuit 7.79710SO15OSO02

Graphique du 07-08-2019

 

Serveur OMMA